This demonstration page uses our WeatherBlox Daily Observations layout. Learn more.

Hourly Observations for February 13, 2020

Temp ( °F °C ) Dew Point ( °F °C ) Humidity (%) Winds ( mph kmh ) Pressure ( in mb ) Visibility ( mi km ) Precip ( " mm )
12:15 am 00:15 Cloudy 37 3 37 3 100 100 S 8 13 29.91 1013 10 16.0934 0 0
12:35 am 00:35 Cloudy 37 3 37 3 100 100 S 7 11 29.89 1012 10 16.0934 0 0
12:55 am 00:55 Cloudy 37 3 37 3 100 100 S 10 17 29.88 1012 10 16.0934 0 0
1:15 am 01:15 Cloudy 37 3 37 3 100 100 SSW 7 11 29.9 1012 10 16.0934 0 0
1:35 am 01:35 Cloudy 37 3 37 3 100 100 S 10 17 29.87 1011 4 6.43736 0 0
1:55 am 01:55 Cloudy 37 3 37 3 100 100 S 7 11 29.85 1011 7 11.26538 0 0
2:15 am 02:15 Cloudy 37 3 37 3 100 100 S 10 17 29.84 1010 7 11.26538 0 0
2:35 am 02:35 Cloudy 37 3 37 3 100 100 S 9 15 29.82 1010 7 11.26538 0 0
2:55 am 02:55 Cloudy 37 3 37 3 100 100 S 9 15 29.81 1009 7 11.26538 0 0
3:15 am 03:15 Cloudy 37 3 37 3 100 100 S 10 17 29.8 1009 7 11.26538 0 0
3:35 am 03:35 Cloudy 37 3 37 3 100 100 S 12 19 29.77 1008 7 11.26538 0 0
3:55 am 03:55 Cloudy 37 3 37 3 100 100 S 8 13 29.76 1008 7 11.26538 0 0
4:15 am 04:15 Cloudy 37 3 37 3 100 100 S 9 15 29.74 1007 7 11.26538 0 0
4:35 am 04:35 Cloudy 37 3 37 3 100 100 SSW 7 11 29.73 1007 7 11.26538 0 0
4:55 am 04:55 Cloudy 37 3 37 3 100 100 SSW 6 9 29.72 1006 10 16.0934 0 0
5:15 am 05:15 Cloudy 37 3 37 3 100 100 SSW 8 13 29.73 1007 10 16.0934 0 0
5:35 am 05:35 Cloudy 37 3 37 3 100 100 SSW 8 13 29.73 1007 10 16.0934 0 0
5:55 am 05:55 Cloudy 39 4 39 4 100 100 SSW 7 11 29.72 1006 10 16.0934 0 0
6:15 am 06:15 Cloudy 39 4 39 4 100 100 SSW 5 7 29.73 1007 7 11.26538 0 0
6:35 am 06:35 Cloudy 39 4 39 4 100 100 S 8 13 29.72 1006 7 11.26538 0 0
6:55 am 06:55 Cloudy 39 4 39 4 100 100 S 12 19 29.71 1006 7 11.26538 0 0
7:15 am 07:15 Cloudy 39 4 39 4 100 100 SSW 12 19 29.7 1006 10 16.0934 0 0
7:35 am 07:35 Cloudy 41 5 41 5 100 100 SSW 10 17 29.68 1005 10 16.0934 0 0
7:55 am 07:55 Cloudy 41 5 41 5 100 100 SW 10 17 29.68 1005 10 16.0934 0 0
8:15 am 08:15 Cloudy 41 5 41 5 100 100 SSW 9 15 29.68 1005 10 16.0934 0 0
8:35 am 08:35 Cloudy 43 6 43 6 100 100 SSW 7 11 29.67 1005 10 16.0934 0 0
8:55 am 08:55 Cloudy 43 6 43 6 100 100 SW 5 7 29.7 1006 10 16.0934 0 0
9:15 am 09:15 Cloudy 43 6 43 6 100 100 SSW 6 9 29.68 1005 10 16.0934 0 0
9:35 am 09:35 Cloudy 43 6 43 6 100 100 SSW 10 17 29.69 1005 10 16.0934 0 0
9:55 am 09:55 Cloudy 45 7 45 7 100 100 SSW 7 11 29.67 1005 10 16.0934 0 0
10:15 am 10:15 Cloudy 45 7 45 7 100 100 SSW 10 17 29.63 1003 10 16.0934 0 0
10:35 am 10:35 Cloudy 45 7 45 7 100 100 WSW 6 9 29.65 1004 10 16.0934 0 0
10:55 am 10:55 Cloudy 46 8 46 8 100 100 SW 5 7 29.66 1004 10 16.0934 0 0
11:15 am 11:15 Cloudy 46 8 46 8 100 100 SSW 6 9 29.65 1004 10 16.0934 0 0
11:35 am 11:35 Cloudy 46 8 46 8 100 100 NW 3 6 29.67 1005 10 16.0934 0 0
11:55 am 11:55 Cloudy 46 8 46 8 100 100 WSW 5 7 29.67 1005 10 16.0934 0 0
12:15 pm 12:15 Cloudy 46 8 46 8 100 100 N 3 6 29.64 1004 10 16.0934 0 0
12:35 pm 12:35 Cloudy 48 9 48 9 100 100 WNW 10 17 29.68 1005 10 16.0934 0 0
12:55 pm 12:55 Cloudy 48 9 48 9 100 100 W 12 19 29.69 1005 10 16.0934 0 0
1:15 pm 13:15 Cloudy 48 9 48 9 100 100 WNW 6 9 29.7 1006 7 11.26538 0 0
1:35 pm 13:35 Cloudy 48 9 48 9 100 100 Calm 29.69 1005 10 16.0934 0 0
1:55 pm 13:55 Cloudy 46 8 46 8 100 100 Calm 29.66 1004 10 16.0934 0 0
2:15 pm 14:15 Cloudy 48 9 48 9 100 100 Calm 29.68 1005 10 16.0934 0 0
2:35 pm 14:35 Mostly Cloudy 48 9 48 9 100 100 Calm 29.69 1005 10 16.0934 0 0
2:55 pm 14:55 Partly Cloudy 50 10 50 10 100 100 Calm 29.69 1005 10 16.0934 0 0
3:15 pm 15:15 Sunny 50 10 50 10 100 100 NNW 3 6 29.7 1006 10 16.0934 0 0
3:35 pm 15:35 Mostly Cloudy 52 11 45 7 77 77 NW 13 20 29.71 1006 10 16.0934 0 0
3:55 pm 15:55 Cloudy 52 11 43 6 72 72 NW 15 24 29.72 1007 10 16.0934 0 0
4:15 pm 16:15 Cloudy 50 10 43 6 76 76 NW 17 28 29.75 1007 10 16.0934 0 0
4:35 pm 16:35 Cloudy 50 10 41 5 71 71 NNW 17 28 29.78 1008 10 16.0934 0 0
4:55 pm 16:55 Cloudy 48 9 39 4 71 71 NNW 24 39 29.8 1009 10 16.0934 0 0
5:15 pm 17:15 Cloudy 46 8 37 3 71 71 NNW 26 43 29.83 1010 10 16.0934 0 0
5:55 pm 17:55 Partly Cloudy 45 7 34 1 66 66 NNW 25 41 29.87 1012 10 16.0934 0 0
6:15 pm 18:15 Clear 45 7 34 1 66 66 NNW 15 24 29.89 1012 10 16.0934 0 0
6:35 pm 18:35 Clear 45 7 34 1 66 66 NW 12 19 29.93 1014 10 16.0934 0 0
6:55 pm 18:55 Partly Cloudy 45 7 34 1 66 66 NNW 9 15 29.95 1014 10 16.0934 0 0
7:15 pm 19:15 Mostly Cloudy 43 6 34 1 71 71 NW 16 26 29.95 1014 10 16.0934 0 0
7:35 pm 19:35 Mostly Cloudy 43 6 34 1 71 71 NNW 14 22 29.96 1015 10 16.0934 0 0
7:55 pm 19:55 Clear 43 6 34 1 71 71 NW 17 28 29.98 1015 10 16.0934 0 0
8:15 pm 20:15 Partly Cloudy 43 6 32 0 66 66 NNW 18 30 29.98 1015 10 16.0934 0 0
8:35 pm 20:35 Mostly Cloudy 43 6 32 0 66 66 NNW 20 31 30 1016 10 16.0934 0 0
8:55 pm 20:55 Partly Cloudy 41 5 32 0 70 70 NW 16 26 30.02 1017 10 16.0934 0 0
9:15 pm 21:15 Partly Cloudy 41 5 32 0 70 70 NNW 21 33 30.02 1017 10 16.0934 0 0
9:55 pm 21:55 Partly Cloudy 41 5 32 0 70 70 NW 17 28 30.04 1017 10 16.0934 0 0
10:15 pm 22:15 Mostly Cloudy 41 5 30 -1 66 66 NW 12 19 30.05 1018 10 16.0934 0 0
10:35 pm 22:35 Mostly Cloudy 41 5 30 -1 66 66 WNW 8 13 30.05 1018 10 16.0934 0 0
10:55 pm 22:55 Cloudy 41 5 30 -1 66 66 WNW 13 20 30.06 1018 10 16.0934 0 0
11:15 pm 23:15 Mostly Cloudy 39 4 30 -1 70 70 NW 9 15 30.08 1018 10 16.0934 0 0
11:35 pm 23:35 Mostly Cloudy 39 4 28 -2 65 65 W 7 11 30.08 1018 10 16.0934 0 0
11:55 pm 23:55 Mostly Cloudy 39 4 28 -2 65 65 W 5 7 30.09 1019 10 16.0934 0 0

Powered by AerisWeather